Litchfield, MN

12:50 PM CDT on April 27, 2017 (GMT -0500)
Litchfield Municipal

Weather History for KLJF - May, 2013

Change the Weather History Date:

Saturday, May 25, 2013

  Actual Average Record
Temperature  
Mean Temperature 56 °F -  
Max Temperature 60 °F 70 °F 92 °F (1978)
Min Temperature 53 °F 49 °F 36 °F (1983)
Degree Days  
Heating Degree Days 8    
Growing Degree Days 6 (Base 50)    
Moisture  
Dew Point 51 °F    
Average Humidity 86    
Maximum Humidity 94    
Minimum Humidity 72    
Precipitation  
Precipitation 0.00 in - - ()
Sea Level Pressure  
Sea Level Pressure 30.21 in    
Wind  
Wind Speed 14 mph (ESE)    
Max Wind Speed 21 mph    
Max Gust Speed 26 mph    
Visibility 10 miles    
Events Rain    
Averages and records for this station are not official NWS values.
T = Trace of Precipitation, MM = Missing Value Source: NWS Daily Summary

Daily Weather History Graph

Daily Weather History Graph

Search for Another Location

Airport or City:

Trip Planner

Search our weather history database for the weather conditions in past years. The results will help you decide how hot, cold, wet, or windy it might be!

Date:

Astronomy

May. 25, 2013 Rise Set
Actual Time 5:38 AM CDT 8:51 PM CDT
Civil Twilight 5:03 AM CDT 9:27 PM CDT
Nautical Twilight 4:16 AM CDT 10:13 PM CDT
Astronomical Twilight 3:20 AM CDT 11:11 PM CDT
Moon 9:40 PM CDT (5/25) 6:07 AM CDT (5/25)
Length of Visible Light 16h 24m
Length of Day
15h 13m
Full, 100% of the Moon is Illuminated
May 25
Full
May 31
Last Quarter
Jun 8
New
Jun 16
First Quarter
Jun 23
Full

Hourly Weather History & Observations

Time (CDT) Temp. Dew Point Humidity Pressure Visibility Wind Dir Wind Speed Gust Speed Precip Events Conditions
12:13 AM 55.4 °F 53.6 °F 94% 30.22 in 10.0 mi ESE 11.5 mph 17.3 mph N/A   Overcast
12:33 AM 55.4 °F 53.6 °F 94% 30.22 in 10.0 mi ESE 12.7 mph - N/A   Drizzle
12:53 AM 55.4 °F 53.6 °F 94% 30.22 in 10.0 mi ESE 11.5 mph - N/A   Overcast
1:12 AM 55.4 °F 51.8 °F 88% 30.22 in 10.0 mi ESE 11.5 mph - N/A Rain Light Rain
1:33 AM 55.4 °F 51.8 °F 88% 30.22 in 10.0 mi SE 10.4 mph - N/A   Overcast
1:53 AM 55.4 °F 51.8 °F 88% 30.19 in 10.0 mi ESE 12.7 mph 17.3 mph N/A   Overcast
2:12 AM 55.4 °F 51.8 °F 88% 30.18 in 10.0 mi ESE 11.5 mph - N/A   Overcast
2:33 AM 55.4 °F 51.8 °F 88% 30.18 in 10.0 mi ESE 12.7 mph - N/A   Overcast
2:53 AM 55.4 °F 51.8 °F 88% 30.18 in 10.0 mi ESE 12.7 mph - N/A   Overcast
3:12 AM 55.4 °F 51.8 °F 88% 30.19 in 10.0 mi ESE 11.5 mph - N/A   Overcast
3:33 AM 55.4 °F 51.8 °F 88% 30.18 in 10.0 mi ESE 13.8 mph - N/A   Overcast
3:53 AM 55.4 °F 51.8 °F 88% 30.19 in 10.0 mi ESE 12.7 mph 17.3 mph N/A   Overcast
4:12 AM 55.4 °F 51.8 °F 88% 30.19 in 10.0 mi ESE 12.7 mph - N/A   Overcast
4:33 AM 55.4 °F 51.8 °F 88% 30.20 in 10.0 mi SE 13.8 mph - N/A   Overcast
4:53 AM 55.4 °F 51.8 °F 88% 30.19 in 10.0 mi ESE 11.5 mph - N/A   Overcast
5:13 AM 53.6 °F 51.8 °F 94% 30.19 in 10.0 mi ESE 12.7 mph - N/A   Light Drizzle
5:32 AM 55.4 °F 51.8 °F 88% 30.18 in 10.0 mi ESE 15.0 mph 20.7 mph N/A   Overcast
5:53 AM 53.6 °F 51.8 °F 94% 30.18 in 10.0 mi ESE 15.0 mph - N/A   Overcast
6:13 AM 53.6 °F 51.8 °F 94% 30.18 in 10.0 mi ESE 16.1 mph 23.0 mph N/A   Overcast
6:32 AM 55.4 °F 51.8 °F 88% 30.19 in 10.0 mi ESE 15.0 mph - N/A   Overcast
6:53 AM 55.4 °F 51.8 °F 88% 30.19 in 10.0 mi ESE 15.0 mph - N/A   Overcast
7:13 AM 55.4 °F 51.8 °F 88% 30.19 in 10.0 mi ESE 16.1 mph - N/A   Overcast
7:33 AM 55.4 °F 50.0 °F 82% 30.19 in 10.0 mi ESE 18.4 mph - N/A   Overcast
7:53 AM 55.4 °F 50.0 °F 82% 30.19 in 10.0 mi ESE 18.4 mph 24.2 mph N/A   Overcast
8:13 AM 55.4 °F 51.8 °F 88% 30.19 in 10.0 mi ESE 16.1 mph 24.2 mph N/A   Overcast
8:33 AM 55.4 °F 50.0 °F 82% 30.20 in 10.0 mi ESE 16.1 mph - N/A   Overcast
8:53 AM 55.4 °F 50.0 °F 82% 30.20 in 10.0 mi SE 17.3 mph 20.7 mph N/A   Overcast
9:13 AM 55.4 °F 50.0 °F 82% 30.21 in 10.0 mi SE 17.3 mph 21.9 mph N/A   Overcast
9:33 AM 55.4 °F 50.0 °F 82% 30.21 in 10.0 mi SE 13.8 mph 19.6 mph N/A   Overcast
9:53 AM 55.4 °F 51.8 °F 88% 30.20 in 10.0 mi SE 16.1 mph 21.9 mph N/A   Overcast
10:13 AM 57.2 °F 51.8 °F 82% 30.20 in 10.0 mi SE 15.0 mph 23.0 mph N/A   Mostly Cloudy
10:33 AM 57.2 °F 51.8 °F 82% 30.20 in 10.0 mi SE 18.4 mph 21.9 mph N/A   Mostly Cloudy
10:53 AM 57.2 °F 51.8 °F 82% 30.20 in 10.0 mi SE 17.3 mph 20.7 mph N/A   Mostly Cloudy
11:13 AM 59.0 °F 51.8 °F 77% 30.20 in 10.0 mi SE 19.6 mph 25.3 mph N/A   Mostly Cloudy
11:32 AM 59.0 °F 51.8 °F 77% 30.21 in 10.0 mi SE 20.7 mph 24.2 mph N/A   Mostly Cloudy
11:53 AM 60.8 °F 51.8 °F 72% 30.21 in 10.0 mi SE 20.7 mph 26.5 mph N/A   Mostly Cloudy
12:13 PM 59.0 °F 51.8 °F 77% 30.21 in 10.0 mi ESE 20.7 mph 26.5 mph N/A   Overcast
12:32 PM 60.8 °F 51.8 °F 72% 30.22 in 10.0 mi SE 17.3 mph 24.2 mph N/A   Overcast
12:53 PM 59.0 °F 51.8 °F 77% 30.22 in 10.0 mi SE 17.3 mph 26.5 mph N/A   Overcast
1:13 PM 57.2 °F 51.8 °F 82% 30.22 in 10.0 mi SE 18.4 mph 26.5 mph N/A   Overcast
1:32 PM 57.2 °F 51.8 °F 82% 30.23 in 10.0 mi SE 18.4 mph - N/A   Overcast
1:53 PM 57.2 °F 51.8 °F 82% 30.22 in 10.0 mi SE 17.3 mph 24.2 mph N/A   Overcast
2:13 PM 57.2 °F 51.8 °F 82% 30.23 in 10.0 mi ESE 18.4 mph 23.0 mph N/A   Overcast
2:32 PM 55.4 °F 51.8 °F 88% 30.23 in 10.0 mi SE 18.4 mph 26.5 mph N/A   Overcast
2:53 PM 57.2 °F 51.8 °F 82% 30.22 in 10.0 mi SE 15.0 mph 26.5 mph N/A   Overcast
3:13 PM 57.2 °F 51.8 °F 82% 30.22 in 10.0 mi SE 16.1 mph 25.3 mph N/A   Overcast
3:33 PM 57.2 °F 51.8 °F 82% 30.22 in 10.0 mi SE 17.3 mph 25.3 mph N/A   Overcast
3:53 PM 57.2 °F 51.8 °F 82% 30.22 in 10.0 mi SE 17.3 mph 23.0 mph N/A   Overcast
4:12 PM 57.2 °F 51.8 °F 82% 30.22 in 10.0 mi ESE 19.6 mph 26.5 mph N/A   Overcast
4:33 PM 55.4 °F 51.8 °F 88% 30.21 in 10.0 mi ESE 18.4 mph 24.2 mph N/A   Overcast
4:53 PM 55.4 °F 51.8 °F 88% 30.22 in 10.0 mi ESE 16.1 mph 23.0 mph N/A   Overcast
5:13 PM 55.4 °F 51.8 °F 88% 30.22 in 10.0 mi SE 19.6 mph 25.3 mph N/A   Overcast
5:32 PM 53.6 °F 51.8 °F 94% 30.22 in 7.0 mi ESE 18.4 mph 26.5 mph N/A   Overcast
5:53 PM 53.6 °F 51.8 °F 94% 30.22 in 10.0 mi SE 19.6 mph 26.5 mph N/A   Overcast
6:13 PM 53.6 °F 51.8 °F 94% 30.22 in 7.0 mi ESE 17.3 mph - N/A   Overcast
6:32 PM 53.6 °F 51.8 °F 94% 30.21 in 5.0 mi ESE 16.1 mph - N/A   Overcast
6:53 PM 53.6 °F 51.8 °F 94% 30.21 in 10.0 mi ESE 16.1 mph - N/A   Overcast
7:13 PM 53.6 °F 51.8 °F 94% 30.21 in 10.0 mi ESE 13.8 mph - N/A   Overcast
7:32 PM 53.6 °F 51.8 °F 94% 30.21 in 10.0 mi ESE 17.3 mph 21.9 mph N/A   Overcast
7:53 PM 53.6 °F 51.8 °F 94% 30.21 in 10.0 mi ESE 13.8 mph - N/A   Overcast
8:13 PM 53.6 °F 50.0 °F 88% 30.20 in 10.0 mi ESE 16.1 mph - N/A   Overcast
8:32 PM 53.6 °F 50.0 °F 88% 30.21 in 10.0 mi ESE 17.3 mph 23.0 mph N/A   Overcast
8:53 PM 53.6 °F 50.0 °F 88% 30.21 in 10.0 mi ESE 13.8 mph 19.6 mph N/A   Overcast
9:12 PM 53.6 °F 50.0 °F 88% 30.21 in 10.0 mi ESE 12.7 mph 20.7 mph N/A   Overcast
9:33 PM 53.6 °F 50.0 °F 88% 30.22 in 10.0 mi ESE 11.5 mph - N/A   Overcast
9:53 PM 53.6 °F 48.2 °F 82% 30.22 in 10.0 mi SE 16.1 mph 20.7 mph N/A   Overcast
10:12 PM 53.6 °F 48.2 °F 82% 30.22 in 10.0 mi ESE 13.8 mph - N/A   Overcast
10:33 PM 53.6 °F 48.2 °F 82% 30.22 in 10.0 mi ESE 16.1 mph - N/A   Overcast
10:53 PM 53.6 °F 48.2 °F 82% 30.22 in 10.0 mi ESE 12.7 mph 19.6 mph N/A   Overcast
11:12 PM 53.6 °F 48.2 °F 82% 30.21 in 10.0 mi ESE 12.7 mph - N/A   Overcast
11:33 PM 53.6 °F 48.2 °F 82% 30.20 in 10.0 mi ESE 15.0 mph - N/A   Overcast
11:53 PM 53.6 °F 48.2 °F 82% 30.20 in 10.0 mi ESE 12.7 mph 18.4 mph N/A   Overcast